EST,Max TemperatureF,Mean TemperatureF,Min TemperatureF,Max Dew PointF,MeanDew PointF,Min DewpointF,Max Humidity, Mean Humidity, Min Humidity, Max Sea Level PressureIn, Mean Sea Level PressureIn, Min Sea Level PressureIn, Max VisibilityMiles, Mean VisibilityMiles, Min VisibilityMiles, Max Wind SpeedMPH, Mean Wind SpeedMPH, Max Gust SpeedMPH,PrecipitationIn, CloudCover, Events, WindDirDegrees
2013-2-1,22,15,7,5,0,-4,63,54,45,30.00,29.71,29.37,10,10,10,21,12,32,0.00,2,,285
2013-2-2,16,10,3,3,-3,-9,80,61,42,30.19,30.12,30.00,10,10,6,18,5,29,0.00,4,,288
2013-2-3,25,15,5,11,8,0,80,68,55,30.10,29.94,29.72,10,10,9,13,5,18,0.00,6,,28
2013-2-4,23,16,8,11,5,-6,83,62,41,29.75,29.62,29.54,10,9,2,22,11,37,T,5,Snow,285
2013-2-5,14,7,0,0,-8,-14,83,61,38,30.05,29.97,29.76,10,9,2,17,6,28,0.00,1,,283
2013-2-6,27,16,4,19,8,-7,83,66,49,30.25,29.98,29.87,10,6,0,24,4,31,T,7,Fog-Snow,268
2013-2-7,7,0,-8,-8,-15,-18,83,57,31,30.65,30.51,30.27,10,10,5,21,8,29,0.00,0,,296
2013-2-8,9,0,-9,3,-4,-14,80,68,56,30.64,30.49,30.15,10,4,1,14,4,21,0.01,7,Snow,54
2013-2-9,16,12,7,9,3,0,88,75,61,30.15,29.98,29.90,10,2,0,28,17,44,0.17,8,Fog-Snow,13
2013-2-10,30,20,10,7,2,-2,63,51,38,30.35,30.27,30.13,10,10,8,18,7,26,0.01,1,,297
2013-2-11,31,15,-2,30,20,-6,100,77,53,30.34,29.89,29.55,10,4,0,5,1,,0.23,6,Fog-Rain-Snow,312
2013-2-12,40,35,30,31,29,28,100,82,64,29.68,29.56,29.45,10,9,1,16,7,26,0.05,7,,287
2013-2-13,38,28,17,27,21,14,84,66,47,29.79,29.74,29.66,10,10,7,18,6,24,T,5,,296
2013-2-14,36,25,13,20,16,11,88,64,40,30.00,29.89,29.76,10,9,5,13,3,16,0.00,2,,302
2013-2-15,41,28,15,31,22,12,92,78,64,30.01,29.96,29.90,10,7,2,8,1,13,T,6,Snow,170
2013-2-16,30,26,22,27,22,13,92,84,75,29.99,29.91,29.82,8,3,1,14,6,18,0.03,8,Snow,309
2013-2-17,24,19,13,18,14,8,84,73,62,29.82,29.32,29.08,10,3,0,35,16,53,0.20,8,Fog-Snow,319
2013-2-18,23,15,7,7,2,-3,69,57,45,29.87,29.47,29.19,10,4,1,35,24,53,0.06,2,Snow,293
2013-2-19,42,28,14,27,12,0,78,54,30,30.06,29.92,29.74,10,9,1,28,6,44,0.01,3,Snow,13
2013-2-20,39,32,25,36,28,18,92,78,63,29.71,29.46,29.32,10,6,0,15,9,33,0.73,7,Fog-Rain-Snow,263
2013-2-21,34,27,20,28,19,11,82,74,66,30.17,29.76,29.54,10,7,1,18,13,33,0.01,8,Snow,315
2013-2-22,28,27,26,19,18,17,69,66,63,30.43,30.35,30.26,10,10,10,16,12,25,0.00,2,,4
2013-2-23,31,22,12,25,25,24,92,92,92,30.12,30.09,30.08,2,2,1,8,2,10,0.05,8,Snow,133
2013-2-24,30,27,24,25,23,19,92,84,75,30.10,29.94,29.85,10,7,1,10,4,14,0.02,7,Snow,64
2013-2-25,37,26,15,22,17,12,88,63,37,30.12,30.05,29.92,10,10,9,10,5,,0.00,2,,22
2013-2-26,43,27,10,25,19,7,92,64,36,30.39,30.34,30.29,10,8,2,8,1,12,0.00,1,,333
2013-2-27,43,28,13,23,17,10,92,63,34,30.31,30.12,29.90,10,8,4,17,5,25,T,2,Snow,103
2013-2-28,33,31,29,28,26,17,92,72,51,29.86,29.71,29.59,8,2,0,18,9,24,0.51,8,Fog-Snow,53